This is the latest recevied weather packets stored in our database for station/object KE5AKC. If no packets are shown the sender has not sent any weather packets the latest 10 day(s).
| Time | Temp. | Humidity | Pressure | Rain* | Wind** | Luminosity | Snow |
|---|---|---|---|---|---|---|---|
| 1777847970 | 26.11° C | 37% | 1018.1 hPa | 0 mm | - | 364 W/m² | - |
| 1777847667 | 26.11° C | 37% | 1018.5 hPa | 0 mm | - | 405 W/m² | - |
| 1777847363 | 25.56° C | 36% | 1018.5 hPa | 0 mm | - | 408 W/m² | - |
| 1777847062 | 26.11° C | 36% | 1018.5 hPa | 0 mm | - | 371 W/m² | - |
| 1777846760 | 26.67° C | 35% | 1018.8 hPa | 0 mm | - | 287 W/m² | - |
| 1777846458 | 26.11° C | 35% | 1018.8 hPa | 0 mm | - | 366 W/m² | - |
| 1777846154 | 26.67° C | 35% | 1018.5 hPa | 0 mm | - | 498 W/m² | - |
| 1777845850 | 26.67° C | 35% | 1018.5 hPa | 0 mm | - | 521 W/m² | - |
| 1777845548 | 26.67° C | 36% | 1018.5 hPa | 0 mm | - | 532 W/m² | - |
| 1777845245 | 26.67° C | 35% | 1018.5 hPa | 0 mm | - | 560 W/m² | - |
| 1777844942 | 26.67° C | 35% | 1018.5 hPa | 0 mm | - | 608 W/m² | - |
| 1777844639 | 26.67° C | 35% | 1018.8 hPa | 0 mm | - | 561 W/m² | - |
| 1777844336 | 26.67° C | 35% | 1019.1 hPa | 0 mm | - | 645 W/m² | - |
| 1777844034 | 26.67° C | 35% | 1018.8 hPa | 0 mm | - | 655 W/m² | - |
| 1777843730 | 26.11° C | 36% | 1018.8 hPa | 0 mm | - | 363 W/m² | - |
| 1777843428 | 27.22° C | 33% | 1019.1 hPa | 0 mm | - | 227 W/m² | - |
| 1777843125 | 27.22° C | 33% | 1019.1 hPa | 0 mm | - | 227 W/m² | - |
| 1777842822 | 27.78° C | 34% | 1019.1 hPa | 0 mm | - | 745 W/m² | - |
| 1777842517 | 28.33° C | 32% | 1019.1 hPa | 0 mm | - | 778 W/m² | - |
| 1777842215 | 28.33° C | 34% | 1019.1 hPa | 0 mm | - | 788 W/m² | - |
| 1777841910 | 27.78° C | 35% | 1019.5 hPa | 0 mm | - | 806 W/m² | - |
| 1777841606 | 27.78° C | 35% | 1019.5 hPa | 0 mm | - | 795 W/m² | - |
| 1777841303 | 27.22° C | 33% | 1019.5 hPa | 0 mm | - | 802 W/m² | - |
| 1777841001 | 26.67° C | 34% | 1019.5 hPa | 0 mm | - | 808 W/m² | - |
| 1777840698 | 26.67° C | 33% | 1019.5 hPa | 0 mm | - | 822 W/m² | - |
* Rain latest hour (hover to see other rain measurements)
** Current wind speed in m/s (hover to see current wind gust speed)